Regional Weather Roundup
Issued by NWS

Home | Current Version | Previous Version | Graphics & Text | Print | Product List | Glossary On
Versions: 1 2 3 4 5 6 7 8 9 10 11 12 13 14 15 16 17 18 19 20 21 22 23 24 25 26 27 28 29 30 31 32 33 34 35 36 37 38 39 40 41 42 43 44 45 46 47 48 49 50
000
ASUS43 KFSD 280002
RWRSD

WEATHER ROUNDUP FOR SOUTH DAKOTA
NATIONAL WEATHER SERVICE SIOUX FALLS SD
700 PM CDT THU AUG 27 2015

NOTE: "FAIR" INDICATES FEW OR NO CLOUDS BELOW 12,000 FEET WITH NO
SIGNIFICANT WEATHER AND/OR OBSTRUCTIONS TO VISIBILITY.


SDZ001>005-009-010-012>017-280100-
NORTHWEST AND NORTH CENTRAL SOUTH DAKOTA

CITY           SKY/WX    TMP DP  RH WIND       PRES   REMARKS
BUFFALO          N/A     79  61  53 S10       29.88S
FAITH            N/A     76  53  44 SE13      29.95F
MOBRIDGE       MOSUNNY   76  65  68 SE9       29.92F
$$

SDZ012>016-024>037-041>051-057-063-072>074-280100-
SOUTHWEST AND SOUTH CENTRAL SOUTH DAKOTA

CITY           SKY/WX    TMP DP  RH WIND       PRES   REMARKS
RAPID CTY ARPT MOSUNNY   75  62  64 E9        30.00F
PIERRE         LGT RAIN  70  66  87 NE10      29.91F
CUSTER         MOSUNNY   73  49  42 VRB7      30.14F
PHILIP         PTSUNNY   71  64  78 E5        29.96S
PINE RIDGE     PTSUNNY   73  58  59 NE6       30.01F
WINNER         CLOUDY    75  69  81 CALM      29.90S
$$

SDZ004>011-016>023-039-040-280100-
NORTHEAST SOUTH DAKOTA

CITY           SKY/WX    TMP DP  RH WIND       PRES   REMARKS
ABERDEEN       CLOUDY    73  67  81 CALM      29.94S
WATERTOWN      CLOUDY    74  69  85 S6        29.96F
BROOKINGS      CLOUDY    72  66  83 E10       30.00S
$$

SDZ017-020-022-023-036>040-048>070-280100-
SOUTHEAST SOUTH DAKOTA

CITY           SKY/WX    TMP DP  RH WIND       PRES   REMARKS
SIOUX FALLS    LGT RAIN  72  65  78 SE24G35   29.93F
HURON          CLOUDY    75  69  81 E9        29.92S
CHAMBERLAIN    HVY RAIN  70  69  98 E14       29.90S VSB 3/4
MITCHELL       CLOUDY    74  67  78 SE12      29.90F
YANKTON        CLOUDY    73  70  88 E10       29.90S
$$

ABBREVIATIONS USED IN REMARKS
   TC - TEMPERATURE IN CELSIUS
  WCI - WIND CHILL INDEX
   HX - HEAT INDEX
  VSB - VISIBILITY




USA.gov is the U.S. government's official web portal to all federal, state and local government web resources and services.